GFSNGP_sfc_temp_096.txt.gz
Temp
70 72 73 71 72 74 72 72 67 70 67 61 61 64 65 63 63 66 71 69 69 67 67 68 69 71 72 72 68 70 69 67 67 67 67 67 69 72 74 76 77 79 79 80
65 72 73 70 74 76 76 76 75 74 59 59 65 66 66 65 68 65 67 70 71 72 71 69 70 71 74 72 70 72 71 69 67 68 68 68 70 73 74 76 77 78 79 79
58 69 69 63 65 69 68 67 63 65 63 68 68 67 66 68 68 68 69 71 69 68 68 69 69 75 73 71 71 70 71 74 70 70 70 69 70 72 73 75 77 77 77 77
60 64 52 68 71 69 68 70 71 68 65 65 65 67 69 65 65 66 71 73 71 68 67 68 72 71 76 76 74 74 72 73 73 72 71 72 72 72 72 74 74 73 74 73
58 58 65 54 54 54 64 64 69 67 67 67 66 66 65 63 64 62 72 75 72 72 70 70 68 70 69 67 72 73 73 74 75 74 73 70 69 70 70 71 70 72 75 78
58 47 48 51 56 65 64 57 67 67 64 63 61 54 55 60 62 60 73 75 74 75 74 73 71 69 67 65 67 67 68 69 74 74 73 73 73 70 70 72 71 71 72 76
53 51 61 65 72 77 55 54 66 66 62 60 54 55 58 60 62 70 73 75 75 74 73 73 73 73 70 70 68 70 71 70 68 70 71 73 72 72 70 70 70 72 73 74
55 51 48 73 71 60 61 69 68 66 61 60 60 59 60 63 68 72 73 74 74 72 71 72 73 72 69 68 71 72 72 71 70 68 70 72 71 72 73 73 72 71 70 69
62 61 69 74 69 72 72 70 69 69 63 59 62 65 70 70 70 72 74 74 76 73 72 72 72 72 69 69 71 72 72 72 72 68 66 70 70 71 72 73 71 70 72 72
65 69 65 70 71 74 72 67 67 62 67 73 70 70 71 70 72 72 74 74 74 74 72 70 72 72 72 72 72 71 70 71 73 73 68 69 72 72 72 72 72 70 70 70
65 68 72 72 72 68 66 67 65 67 75 76 74 71 69 71 72 73 73 74 75 73 71 70 71 70 73 72 72 70 70 71 73 76 71 72 72 71 69 71 68 69 70 69
60 70 69 68 71 68 64 60 59 59 69 78 75 70 72 73 74 71 74 74 74 69 67 71 70 70 72 73 72 70 70 72 72 73 75 74 74 73 59 58 53 49 46 53
71 78 74 72 71 67 61 61 65 68 76 75 76 72 72 73 73 69 69 72 70 69 69 70 71 71 72 73 72 70 69 70 72 71 74 74 74 73 70 66 51 48 45 44
80 78 72 67 70 70 65 62 64 68 77 77 71 75 70 73 72 72 70 72 70 73 72 71 71 72 74 73 72 71 71 64 72 75 74 74 75 74 76 71 69 68 49 49
80 80 76 74 65 60 63 69 63 73 75 74 77 72 72 70 70 72 73 71 74 72 73 73 72 72 74 74 72 71 73 75 76 76 75 73 73 74 75 71 69 71 71 53
80 81 81 78 60 60 62 63 72 71 76 76 76 75 76 71 68 68 70 70 70 69 72 72 72 73 73 72 71 72 73 70 67 74 76 76 76 74 71 72 69 67 70 68
75 75 76 76 65 61 61 73 76 76 76 76 75 76 76 73 70 68 69 73 68 74 74 73 71 72 71 72 72 72 74 76 70 77 77 74 75 74 71 72 68 69 65 59
64 58 59 61 63 66 57 77 76 77 74 74 74 75 74 73 70 71 72 72 70 74 74 73 71 70 70 72 71 71 74 75 75 76 74 75 73 73 73 70 70 67 63 60
65 61 57 58 63 73 75 77 77 72 78 74 71 70 75 73 70 69 70 71 70 70 69 73 65 67 70 71 68 73 75 73 73 73 72 67 73 72 67 69 67 67 66 65
62 60 61 56 78 75 73 73 78 77 77 76 75 74 73 70 71 70 72 69 71 73 72 73 71 71 72 73 66 74 74 73 75 69 70 71 71 71 68 59 65 64 65 61
69 77 77 77 76 77 77 77 76 74 75 76 74 73 71 72 74 74 71 72 72 69 73 68 72 75 77 70 72 75 72 75 76 74 67 69 74 71 67 65 65 64 64 62
72 75 76 76 75 74 75 76 76 77 74 72 70 69 69 72 73 74 74 72 75 60 72 76 76 63 70 60 74 75 76 77 76 75 75 74 74 69 70 67 64 64 65 63
69 71 72 74 74 74 76 71 73 74 69 72 70 70 71 74 75 71 69 72 76 66 75 76 61 59 61 70 73 75 76 78 77 77 73 74 76 74 72 70 69 66 65 64
64 65 65 68 73 71 70 70 74 74 70 67 73 74 70 68 75 77 69 60 58 66 74 72 66 60 55 72 74 75 77 76 77 77 76 58 74 78 75 72 69 68 66 61
60 57 58 65 69 71 67 67 70 69 72 71 69 73 73 72 64 73 74 70 61 65 75 61 58 58 69 73 74 76 76 78 77 75 76 76 76 77 76 76 71 69 67 65
59 55 56 56 65 70 65 68 70 75 74 74 74 76 77 75 69 73 73 65 65 63 71 68 70 71 72 74 75 76 76 77 76 75 75 74 73 76 77 76 73 71 70 68
58 53 57 58 60 70 70 74 73 71 68 74 72 72 72 69 73 65 65 74 73 69 67 68 71 66 75 75 73 75 72 74 68 75 75 74 74 75 76 74 76 76 77 75

GFSNGP_sfc_temp_102.txt.gz
Temp
54 58 60 61 61 61 52 50 45 49 49 52 54 55 57 59 61 61 60 60 61 62 63 65 66 67 65 65 66 67 67 67 67 67 67 67 66 67 68 68 70 69 68 72
48 60 61 59 61 60 59 57 55 54 51 56 57 58 59 58 59 59 60 62 64 63 64 65 66 66 68 66 66 66 65 65 65 66 66 66 66 66 67 67 67 68 70 70
43 55 56 49 54 58 56 55 53 47 52 57 56 57 55 55 57 59 61 64 63 63 63 64 65 65 64 65 65 66 66 65 65 64 64 63 65 65 66 68 69 70 70 69
46 46 39 52 59 61 59 57 56 58 57 58 56 55 56 56 56 58 61 63 62 63 64 64 65 64 67 66 65 65 65 65 65 64 64 64 65 65 67 68 67 67 68 69
43 40 49 54 56 55 51 51 59 56 59 57 56 59 57 58 58 58 61 60 63 65 65 65 65 65 66 66 64 64 63 64 65 65 65 64 64 64 65 66 66 67 69 69
45 41 39 49 58 61 59 44 59 59 56 54 53 48 52 59 60 61 61 61 62 64 66 65 63 65 65 64 63 61 63 65 65 65 65 64 64 65 65 66 66 67 67 67
45 41 47 57 62 61 44 47 58 58 56 53 51 52 57 60 60 62 62 64 65 65 60 60 60 60 59 59 59 61 63 63 64 63 64 64 64 64 65 65 65 66 67 66
41 38 39 60 62 54 53 55 58 58 58 56 56 58 59 60 61 62 62 65 64 61 60 60 60 59 57 57 59 60 61 62 62 61 63 64 63 64 64 64 64 64 65 66
45 44 52 56 56 58 58 57 57 57 59 58 59 59 60 60 60 60 63 63 62 60 59 59 60 59 58 58 59 59 59 58 59 61 62 62 61 61 63 63 63 62 62 61
48 52 54 56 59 59 59 58 59 59 59 59 58 59 63 60 61 63 64 63 61 61 59 58 59 60 59 59 59 58 57 57 58 59 60 60 61 61 60 63 62 61 59 59
46 50 52 59 60 60 60 61 60 61 62 62 60 62 61 60 61 62 64 62 63 63 63 59 60 59 59 59 59 58 57 57 56 56 55 56 59 60 60 60 59 59 59 58
47 56 54 56 59 60 58 58 59 63 62 63 62 61 63 59 61 62 61 61 64 64 61 59 59 58 59 59 59 57 56 56 56 56 56 56 56 58 56 56 50 50 48 53
57 59 58 59 59 60 57 58 61 63 63 61 66 63 64 61 60 61 62 63 60 60 60 60 59 59 59 59 58 57 55 56 56 56 56 56 56 57 57 58 49 45 45 46
60 60 56 58 57 60 59 62 61 61 62 63 64 63 65 61 60 61 63 63 61 61 60 59 58 58 58 58 57 56 55 55 55 55 56 56 56 56 56 56 56 58 45 47
59 60 58 57 57 57 59 61 60 60 61 62 62 63 63 61 60 61 63 64 62 61 60 59 58 58 58 58 56 56 56 56 56 56 55 56 57 56 56 56 57 57 55 49
58 59 58 56 56 57 57 59 58 57 60 61 63 63 63 65 61 63 65 65 59 58 58 58 57 57 58 56 56 56 56 58 58 56 58 59 62 59 58 59 58 57 56 55
55 52 54 54 57 58 57 57 58 59 60 60 62 63 63 61 59 59 60 61 61 59 59 58 58 59 58 57 56 55 55 56 58 57 58 58 58 59 60 60 59 58 54 53
55 57 57 57 57 57 56 59 60 61 59 61 63 65 62 62 60 61 63 59 60 58 57 59 59 58 57 57 56 56 55 56 57 57 58 57 57 57 57 56 56 55 54 53
58 56 58 58 58 56 58 59 59 59 59 60 61 61 61 60 60 62 63 59 58 56 58 59 61 61 56 59 59 57 56 56 56 56 57 56 56 56 55 56 56 55 55 56
58 59 58 59 60 57 57 61 61 60 61 63 62 60 59 63 64 62 59 57 58 58 58 60 59 57 56 58 60 56 56 56 56 56 56 55 55 55 55 52 55 55 54 52
59 59 60 60 61 61 61 61 61 62 63 61 60 59 62 59 63 57 56 54 59 58 60 60 59 58 56 59 58 56 55 55 55 55 56 58 55 55 54 55 55 55 54 53
57 58 60 60 59 59 61 62 61 60 61 61 61 60 58 57 57 57 58 58 58 56 59 63 58 59 59 59 55 55 55 55 55 55 55 55 54 54 54 55 54 54 55 54
54 55 55 55 56 58 60 61 63 61 61 60 59 58 57 57 56 56 59 62 58 59 62 58 58 58 58 57 55 54 55 55 56 56 56 56 59 55 55 57 57 55 54 54
53 53 52 54 56 56 57 56 60 61 58 58 59 58 58 60 57 56 57 57 56 58 57 57 55 54 54 54 53 53 54 54 57 59 62 54 60 56 56 55 54 56 54 51
52 52 52 54 54 54 55 57 58 57 58 57 60 61 61 57 56 56 56 57 55 55 56 55 54 54 54 54 54 55 55 55 57 58 58 56 55 55 54 54 55 56 55 54
50 52 54 55 55 55 55 55 55 58 59 58 58 56 56 55 55 54 54 53 54 54 54 54 54 54 55 55 56 57 55 56 56 56 57 58 56 54 53 53 52 52 53 54
56 52 54 55 57 57 56 57 58 59 56 55 54 55 55 55 54 54 53 53 53 54 54 54 53 53 54 53 54 54 54 55 53 55 55 56 56 55 55 53 53 51 52 52

GFSNGP_sfc_temp_105.txt.gz
Temp
50 54 55 55 56 58 51 50 45 47 47 51 53 54 55 58 58 59 59 60 60 61 61 64 65 66 66 65 66 68 67 66 65 65 65 65 65 66 67 68 68 68 68 68
46 56 56 55 59 59 57 56 52 52 50 56 57 57 57 55 56 56 59 63 64 64 63 64 64 65 64 64 64 66 66 65 66 66 64 64 66 66 65 66 65 66 66 68
39 50 52 47 54 56 55 54 52 46 51 56 55 56 55 54 54 55 59 61 61 63 63 64 64 65 65 65 65 65 65 65 65 65 66 66 66 66 66 66 66 66 66 67
39 42 35 51 57 59 55 57 56 54 55 55 54 55 55 55 55 55 59 60 62 61 62 63 64 65 66 66 64 65 66 65 64 63 63 63 63 64 65 65 65 67 68 67
40 39 47 52 54 54 50 51 57 55 56 56 56 56 54 58 59 58 60 61 61 63 63 63 62 64 64 64 65 63 63 63 63 64 63 62 62 62 65 65 65 66 68 68
41 38 38 49 58 60 56 43 57 56 54 54 53 46 49 57 60 61 61 61 60 63 62 61 61 63 63 62 60 60 62 63 63 63 63 63 62 62 63 66 66 67 66 67
40 40 46 57 60 60 43 45 56 56 53 54 50 51 55 60 60 61 60 61 63 62 58 58 59 58 57 57 57 59 61 61 61 61 62 62 63 63 64 64 64 64 65 66
40 40 40 59 57 49 51 54 57 56 56 55 55 57 57 59 60 60 62 63 63 60 58 58 58 58 56 56 57 58 58 58 59 60 61 61 61 62 63 63 63 63 63 63
44 46 54 54 55 57 56 56 58 56 57 57 57 57 58 58 59 60 61 61 62 59 59 58 58 57 56 56 57 57 57 56 56 59 59 59 59 59 59 61 62 61 60 60
48 54 53 55 57 57 57 57 59 58 59 58 58 58 57 59 59 59 61 61 61 61 59 58 59 59 57 57 57 57 56 55 56 56 55 55 58 59 58 58 58 61 61 59
46 50 52 55 56 58 59 60 59 60 59 60 59 57 58 59 58 60 60 61 61 59 58 58 58 58 57 57 56 55 55 55 54 54 54 54 55 57 58 58 58 58 59 60
47 54 55 55 59 59 56 58 59 58 59 61 61 57 59 59 58 59 60 62 59 58 58 58 58 57 58 57 56 54 54 54 53 53 53 54 54 56 55 52 47 46 46 52
55 58 56 59 58 58 55 56 59 60 60 59 61 61 60 60 58 58 60 61 61 58 58 58 57 57 57 57 55 54 53 53 53 53 53 53 54 54 55 56 47 44 44 45
58 57 55 57 56 59 59 60 60 60 59 59 61 61 62 62 58 59 61 62 59 59 58 57 57 57 57 56 53 54 53 53 52 52 53 54 54 53 53 54 55 56 45 46
57 60 58 56 56 56 57 58 58 58 59 59 61 61 62 60 59 62 63 64 62 58 58 57 57 57 56 55 54 54 53 54 54 54 54 54 55 55 54 53 53 54 53 46
54 55 55 55 54 55 56 57 56 58 59 59 59 62 62 62 60 60 64 64 61 56 57 56 56 56 56 54 54 54 53 56 55 54 54 55 56 56 57 57 57 58 58 56
52 51 52 53 54 54 54 56 57 58 61 60 59 60 61 61 59 59 60 58 58 58 57 56 56 56 56 55 54 53 53 53 56 54 55 54 55 55 56 56 55 55 54 52
55 55 54 53 55 54 56 58 58 59 59 60 60 59 59 58 57 59 62 62 57 58 57 57 57 56 56 56 54 53 53 52 53 53 54 54 54 54 54 54 55 54 53 52
57 57 57 56 56 56 56 57 59 61 60 60 57 58 59 60 58 58 60 57 56 55 57 57 60 58 55 56 58 54 54 54 54 53 53 54 53 53 54 53 54 54 54 52
58 59 57 57 59 56 57 59 60 60 59 60 61 62 59 59 59 57 56 55 56 57 57 58 58 56 56 56 59 53 54 54 53 52 52 53 52 53 52 50 52 54 53 52
55 57 58 58 58 59 58 59 60 59 58 59 57 57 56 57 61 58 54 54 59 57 57 58 57 56 55 56 56 54 52 52 52 51 51 52 52 52 51 52 53 53 53 53
56 55 58 59 58 58 59 59 58 59 59 60 59 58 57 56 56 56 56 58 61 55 56 58 58 57 56 58 54 53 53 53 52 50 50 51 52 52 51 52 52 54 54 54
52 54 54 54 55 55 56 57 58 59 60 59 57 57 55 54 53 54 54 57 55 55 55 55 55 56 55 54 53 52 53 53 52 51 51 52 52 52 51 51 53 54 54 55
51 51 51 53 54 55 55 55 58 56 54 57 56 56 56 55 57 53 53 53 53 53 55 53 54 52 53 52 52 52 52 52 52 52 53 49 51 51 51 52 52 52 54 51
50 51 52 52 54 53 53 55 56 56 57 58 55 58 57 53 53 52 53 53 51 52 54 52 52 52 52 52 52 53 52 52 52 52 53 55 55 54 52 51 53 53 52 52
51 53 54 55 54 54 55 55 55 57 57 53 53 53 53 52 52 52 53 52 53 52 52 52 52 52 52 52 52 53 53 52 52 52 51 54 55 56 56 56 54 53 52 51
53 51 55 54 56 55 56 55 55 55 55 54 53 54 53 53 52 51 51 52 52 52 51 51 50 50 50 51 52 52 52 52 48 50 52 52 54 54 54 55 54 52 51 51

GFSNGP_sfc_temp_111.txt.gz
Temp
65 65 65 65 64 65 62 62 56 62 62 66 66 65 66 67 66 66 66 67 68 67 69 70 69 71 72 73 73 71 67 72 72 74 71 72 72 72 72 71 69 72 72 74
59 65 65 61 64 64 64 64 64 63 61 68 67 68 67 65 65 64 65 66 67 68 69 69 66 66 69 69 68 68 67 71 71 71 69 69 71 71 70 71 71 71 71 73
53 60 60 54 61 63 64 66 65 58 65 66 66 65 64 63 64 62 61 62 65 67 64 66 64 64 65 65 67 67 66 69 70 69 68 69 70 70 70 71 70 69 70 70
55 54 46 62 65 65 64 65 65 65 66 66 65 65 65 65 61 61 60 62 65 62 62 62 63 64 64 65 65 65 65 65 66 66 67 67 66 67 66 67 67 67 69 70
52 53 57 62 62 62 60 61 65 64 66 66 66 66 63 65 65 62 59 59 60 61 61 61 61 64 62 62 63 64 63 65 67 67 67 68 69 70 68 66 66 66 67 70
50 47 47 59 63 67 64 56 66 65 65 65 64 60 64 64 64 62 60 60 60 64 63 60 61 62 62 60 61 64 66 67 68 70 68 68 68 70 70 69 69 71 71 70
52 50 57 64 65 66 53 57 66 66 66 65 61 64 63 63 63 62 61 60 64 68 62 61 61 64 63 62 61 64 67 70 70 71 70 70 71 72 71 69 69 69 69 68
50 49 48 65 64 58 63 66 65 66 66 64 65 66 65 64 61 61 60 61 62 65 63 63 65 65 64 64 66 68 68 68 68 69 71 71 71 71 71 72 71 70 65 64
55 59 62 66 65 69 67 65 66 65 67 65 65 65 65 64 60 60 60 60 62 61 66 63 64 65 64 63 66 67 68 67 67 69 69 70 70 70 73 72 72 67 64 64
56 62 63 66 68 68 68 67 69 68 67 67 64 66 64 60 63 59 59 61 66 63 65 65 65 65 63 65 66 67 66 66 67 68 68 68 72 73 73 73 72 72 71 69
57 61 66 68 67 69 68 68 68 68 67 68 67 66 64 64 63 59 59 64 66 66 65 66 66 65 65 66 66 67 67 67 68 71 70 71 70 71 74 71 69 73 72 73
57 65 63 64 69 70 67 68 68 67 67 68 68 64 65 65 63 62 59 61 65 67 65 66 67 66 65 65 65 65 67 68 67 70 72 72 72 71 51 51 47 46 46 59
63 69 67 67 67 69 66 68 69 69 69 68 68 68 64 64 66 61 60 63 67 67 68 66 66 65 66 64 64 64 65 66 69 68 71 71 71 71 72 61 46 45 45 45
67 65 62 67 66 69 67 68 66 70 69 68 70 69 69 67 66 65 66 65 64 67 67 67 67 67 66 65 66 65 66 54 70 70 71 72 72 72 73 72 72 73 50 49
65 66 65 67 66 66 68 67 66 67 68 68 69 67 70 67 67 67 69 66 66 66 67 67 67 67 66 66 66 66 68 69 69 71 72 67 72 72 73 73 73 73 74 56
63 65 65 63 64 64 65 65 66 67 67 67 68 68 71 70 67 65 67 68 66 68 69 67 67 68 68 67 67 69 69 58 61 70 71 71 73 73 73 73 72 73 73 74
60 61 61 62 63 63 63 65 66 67 67 68 67 68 71 69 68 67 68 69 68 69 70 69 69 69 69 68 67 70 71 71 58 73 72 71 71 71 72 72 73 73 72 71
62 62 62 62 62 64 63 64 66 67 66 68 65 66 69 67 65 63 67 66 65 68 70 72 71 69 69 69 69 71 71 73 73 73 72 72 72 73 72 73 72 73 74 72
63 63 64 64 64 64 65 66 66 67 67 67 65 62 65 66 63 68 68 67 67 67 69 69 63 65 70 68 67 74 75 74 74 73 72 65 72 73 73 72 72 73 74 75
61 62 64 63 64 64 65 67 66 66 66 63 60 59 63 66 67 67 67 65 64 66 66 68 68 69 69 67 62 73 73 72 72 71 71 70 71 70 71 63 68 71 72 74
59 60 60 61 63 64 64 66 66 64 60 59 61 65 67 67 68 67 64 60 63 63 66 64 67 63 64 61 68 73 71 69 69 69 69 68 69 69 69 70 70 70 70 71
58 60 60 61 62 60 61 62 66 61 62 64 65 67 67 65 66 63 62 64 66 54 66 68 68 58 65 62 71 70 70 68 69 68 67 67 67 67 67 68 68 67 67 68
61 60 59 59 61 60 61 60 60 60 61 61 61 63 62 62 67 67 64 64 67 58 67 65 54 53 55 68 69 68 67 67 67 67 66 66 66 66 66 67 66 67 66 65
61 61 61 62 61 57 53 59 57 57 55 55 57 62 64 66 65 67 65 57 53 58 59 56 55 52 56 66 66 66 66 65 65 65 66 52 66 66 66 64 64 64 63 62
60 60 62 61 57 55 57 62 60 58 56 56 56 60 63 64 63 63 64 60 52 58 60 51 51 53 62 62 62 62 62 61 61 62 63 62 61 61 61 62 62 59 59 59
58 58 57 58 56 56 57 57 54 54 54 51 55 60 62 62 61 60 58 55 58 54 57 58 58 59 59 60 60 59 59 59 58 59 58 58 58 57 56 54 53 55 57 55
62 56 63 62 65 61 58 56 54 55 53 52 54 59 61 62 59 58 55 59 59 58 57 58 59 57 59 58 58 58 58 58 52 56 58 57 57 56 56 55 56 55 53 54

GFSNGP_sfc_temp_114.txt.gz
Temp
72 73 73 72 71 72 70 71 65 69 68 74 75 74 74 74 74 74 73 74 75 74 73 75 76 74 75 77 78 77 78 77 75 76 74 77 78 79 79 80 80 80 80 79
66 72 72 68 72 72 72 72 71 72 70 78 77 78 75 73 73 71 70 71 72 70 70 72 69 71 68 73 74 76 75 74 75 77 73 76 77 78 78 77 78 79 77 79
60 69 67 62 70 71 72 74 73 66 71 75 73 72 71 71 71 70 69 69 69 64 68 65 65 64 64 66 70 71 68 69 75 75 75 74 74 75 77 76 76 75 76 78
61 64 52 68 75 74 71 73 72 72 72 71 72 73 73 72 71 71 70 68 67 61 60 61 62 63 64 64 64 69 71 68 70 70 70 71 73 72 73 75 75 73 73 75
58 62 67 70 70 69 67 68 72 71 71 74 75 74 74 72 71 69 68 68 64 63 60 60 61 62 62 63 62 63 67 66 67 70 68 70 71 71 73 72 71 68 70 71
64 54 53 66 70 75 72 61 72 72 71 71 72 66 70 72 72 70 67 67 65 62 65 62 61 65 64 62 61 61 64 66 68 70 70 72 73 74 75 76 74 74 74 70
61 58 64 72 73 74 57 60 73 73 72 72 68 71 73 72 70 69 64 68 65 63 65 63 63 69 66 64 62 64 68 68 70 73 73 73 73 74 74 75 74 72 67 66
62 57 54 73 71 63 69 73 75 73 74 71 72 73 72 71 69 68 66 67 65 61 61 66 67 65 66 65 68 72 74 73 71 74 75 77 75 73 74 74 72 70 67 64
64 65 70 74 71 75 75 72 73 74 75 74 73 73 72 72 70 65 69 65 66 62 60 63 66 69 66 66 70 72 73 73 73 73 74 76 75 76 80 77 77 72 68 67
65 69 71 72 76 76 76 75 77 78 76 76 74 74 72 70 69 70 67 64 69 66 64 62 63 68 69 69 71 72 71 72 73 74 73 75 81 82 81 80 79 79 79 77
65 69 72 74 76 75 75 77 77 78 76 76 75 74 72 71 70 68 66 64 67 69 70 68 67 67 70 70 71 72 73 74 75 77 76 77 76 75 78 72 66 78 79 80
63 72 70 70 74 77 73 74 76 76 76 76 75 73 73 72 71 68 65 67 64 70 72 70 71 70 69 69 70 71 74 75 74 79 79 79 79 76 50 50 47 45 46 60
71 75 73 72 74 75 74 75 77 76 77 75 75 76 75 73 72 66 67 68 68 72 74 73 70 70 71 70 70 69 71 73 77 75 78 78 78 79 77 62 47 46 46 46
75 73 69 72 71 77 76 75 72 77 77 76 76 75 75 75 71 71 70 68 68 73 73 75 74 71 71 72 71 70 72 55 76 77 78 79 78 79 80 79 79 76 51 52
73 73 73 75 74 74 76 76 74 74 76 75 76 76 76 74 73 72 74 73 73 75 74 74 74 72 72 72 72 72 74 73 75 76 77 73 79 80 80 79 78 78 76 55
71 74 74 71 71 72 73 73 73 75 75 75 76 76 77 76 75 74 74 75 73 73 73 73 73 73 74 73 72 75 75 60 66 77 78 77 77 78 78 77 77 79 79 79
68 68 70 69 69 71 71 75 75 75 75 75 76 77 77 77 75 73 75 75 68 75 76 75 74 77 77 76 74 78 79 78 65 79 78 77 77 76 76 77 78 78 78 77
70 70 71 71 70 71 71 72 73 74 74 76 75 73 73 71 73 71 66 75 74 76 77 78 78 77 77 77 76 78 80 79 79 78 77 77 76 77 77 77 78 78 79 78
70 69 70 71 71 71 72 73 73 74 74 75 74 72 68 66 72 70 72 74 74 73 71 75 64 67 76 69 69 79 79 80 79 79 79 71 77 78 78 77 77 78 79 80
68 69 70 70 71 71 71 73 73 73 73 73 71 68 61 60 68 72 73 68 69 69 73 73 74 75 74 66 64 69 70 76 76 77 78 76 77 76 76 67 74 77 78 78
66 66 64 63 64 69 71 72 72 69 68 68 65 60 60 66 71 72 68 64 66 69 71 67 72 74 64 65 73 79 78 76 76 76 76 76 75 76 76 76 76 76 76 76
66 67 61 61 60 60 62 69 70 68 62 60 61 68 67 66 66 69 70 70 71 56 71 73 71 59 68 59 78 77 76 75 75 75 75 74 73 73 73 74 73 71 71 71
68 67 66 60 57 58 59 66 66 61 58 58 60 66 67 70 75 69 68 69 71 61 71 68 55 54 56 74 75 75 74 73 73 73 72 73 72 73 73 73 65 66 63 65
65 65 64 65 65 64 57 57 57 57 57 57 57 59 66 69 71 72 69 58 55 60 62 61 59 53 55 72 71 71 71 70 70 69 71 57 72 71 71 67 66 63 61 59
65 65 66 65 62 54 59 60 62 59 59 56 55 58 62 67 68 69 68 65 55 64 67 52 53 55 68 68 68 68 67 68 67 65 67 67 67 67 67 65 65 65 62 57
65 66 66 66 66 65 62 59 54 54 53 50 52 55 60 67 67 66 65 61 65 59 65 65 64 66 66 66 66 66 66 66 66 66 62 65 65 64 64 64 64 64 63 61
66 57 65 63 68 68 64 58 53 53 51 52 58 65 65 67 65 64 59 67 67 66 65 65 66 62 64 65 65 65 65 65 58 62 62 63 63 63 62 62 62 62 63 62

GFSNGP_sfc_temp_117.txt.gz
Temp
77 78 79 77 76 77 75 76 69 73 73 78 80 80 80 82 80 79 78 78 77 76 74 74 76 76 77 76 76 77 77 76 76 78 78 80 80 81 82 81 82 82 81 82
70 76 76 73 76 77 77 77 76 76 74 84 82 83 81 80 79 77 76 76 77 75 71 69 68 70 71 70 72 74 75 75 78 78 75 76 77 78 80 80 81 82 82 82
64 74 74 66 74 76 77 79 78 70 76 80 76 76 77 77 78 76 77 76 73 69 67 67 61 62 62 64 65 70 74 74 73 75 75 76 77 78 78 78 80 79 80 80
64 68 56 74 81 80 76 77 78 78 78 76 76 78 80 81 77 76 75 73 72 69 69 67 60 61 63 64 65 66 69 72 72 71 73 77 77 78 78 78 77 76 79 80
62 64 70 75 77 74 72 71 79 76 76 78 79 79 77 80 78 75 73 73 72 71 69 66 61 62 63 65 65 65 64 67 68 67 68 72 71 72 74 74 75 77 78 77
66 59 57 71 76 81 78 64 76 76 75 76 76 69 74 78 76 75 74 74 71 71 69 66 66 63 68 65 64 63 62 64 64 65 67 71 71 74 75 75 74 74 75 76
64 61 67 78 79 80 61 64 76 77 77 76 72 74 76 79 76 74 73 73 72 69 63 62 67 66 68 66 61 63 68 68 68 68 67 69 75 74 76 73 72 71 70 68
65 61 57 79 76 67 70 76 78 78 78 76 76 77 78 78 76 73 72 73 71 66 62 61 65 65 64 66 67 71 72 73 73 73 74 71 72 71 73 69 69 69 67 66
69 63 73 78 75 78 79 76 77 77 80 79 78 78 79 75 74 72 74 73 71 65 61 61 62 64 65 67 69 71 73 73 74 74 74 75 75 75 75 71 70 72 70 69
68 73 75 78 79 81 81 78 80 81 82 82 79 80 79 77 74 72 72 72 68 67 62 63 64 69 68 69 70 73 73 74 75 76 72 75 76 77 80 78 78 79 76 71
69 73 76 78 80 81 79 79 80 82 82 82 80 79 79 76 73 72 69 70 67 64 66 66 69 68 70 70 71 72 74 76 76 80 78 79 75 73 76 65 62 76 74 78
67 76 74 75 79 81 78 78 79 80 80 82 81 79 78 78 76 73 69 67 67 67 69 73 75 70 70 70 72 72 75 78 78 81 82 81 80 76 51 51 47 46 45 60
75 80 79 79 78 78 77 78 80 80 82 80 80 79 79 76 77 67 71 68 64 62 68 74 75 73 73 72 72 71 73 75 80 77 81 80 80 80 76 64 48 47 46 45
79 78 73 76 75 79 79 79 77 80 82 81 80 79 78 79 75 74 71 72 69 71 76 73 72 75 75 75 74 74 76 60 79 79 80 81 80 80 82 80 77 74 52 51
77 79 78 79 78 78 80 80 78 78 80 79 80 79 79 76 74 75 76 76 75 74 73 74 73 74 76 76 75 75 78 78 79 80 79 75 80 81 81 80 79 79 75 57
78 78 78 77 77 77 78 78 78 79 80 81 78 76 77 78 78 77 75 75 74 69 76 73 75 76 77 76 75 79 76 65 70 79 81 80 79 78 78 78 78 79 80 79
72 71 74 74 75 75 77 80 80 80 78 80 77 76 77 71 61 76 76 75 75 75 77 77 76 79 79 78 78 81 82 80 72 81 80 80 79 77 78 78 78 78 78 77
76 76 77 76 75 76 76 78 78 80 79 80 78 77 76 76 65 73 75 73 76 72 72 74 75 79 79 78 78 78 76 76 78 80 81 80 79 79 80 80 79 79 80 78
76 75 76 76 77 77 77 78 78 79 79 79 74 72 76 73 72 72 73 70 71 63 72 78 65 70 75 68 71 80 79 75 74 77 75 73 79 81 80 80 79 79 80 80
74 74 76 75 76 77 77 79 78 78 77 75 74 74 72 71 72 64 61 67 69 72 75 75 76 75 73 73 67 73 79 77 74 80 79 79 75 73 79 70 77 79 80 79
68 70 70 69 68 68 69 75 74 72 71 72 71 69 68 65 64 67 64 64 70 71 73 68 72 72 78 71 73 74 70 72 76 79 78 78 78 78 78 79 79 76 74 72
72 69 67 62 60 61 63 68 70 70 69 68 67 63 61 60 61 63 67 69 74 58 73 74 71 60 67 59 78 75 74 71 75 76 76 76 75 75 75 76 76 74 73 71
71 69 65 63 65 62 61 62 64 63 61 57 57 58 60 58 59 59 68 69 72 63 72 68 56 55 56 75 76 75 75 74 73 74 73 73 74 74 74 74 72 70 69 65
64 66 66 66 65 64 56 58 61 60 56 56 57 64 65 68 71 73 69 59 57 62 65 63 60 54 52 74 74 73 72 71 72 71 70 58 72 72 72 71 71 71 71 64
64 63 63 63 64 59 62 62 61 58 59 58 56 57 57 69 67 71 71 69 57 65 71 53 56 57 71 71 71 71 70 71 69 69 70 67 68 69 69 68 69 67 66 67
66 63 62 66 64 63 61 56 52 52 52 52 54 56 58 67 70 71 68 64 69 63 69 70 68 69 69 70 69 69 69 69 68 69 65 66 67 66 66 66 66 66 65 65
69 62 67 64 66 68 65 59 57 58 56 58 62 66 71 71 68 68 60 70 69 69 68 68 70 65 68 68 69 68 68 68 60 65 65 64 64 64 64 64 63 63 64 64

GFSNGP_sfc_temp_123.txt.gz
Temp
61 69 71 69 69 70 61 60 54 59 59 60 63 65 67 69 70 71 70 67 65 62 61 61 61 60 62 62 63 63 63 63 65 66 67 69 70 70 70 71 71 72 71 70
57 69 69 67 70 70 70 69 66 65 61 66 68 69 68 69 70 69 66 67 66 64 63 61 61 61 61 61 62 63 63 64 65 65 67 67 68 70 70 69 70 71 71 70
48 63 63 55 63 67 68 70 66 56 60 66 65 67 65 65 67 65 66 65 64 63 61 62 61 61 59 61 62 62 63 64 65 65 64 65 66 68 69 68 69 69 70 69
48 53 43 60 71 74 72 73 71 70 66 66 65 65 66 67 66 66 67 65 64 61 61 61 61 60 61 61 62 63 63 63 64 64 63 64 65 65 66 66 66 67 68 68
47 48 56 64 68 66 61 62 70 67 68 69 69 65 63 69 68 66 66 64 63 63 63 60 60 60 60 59 63 62 61 61 63 64 63 64 63 63 65 65 66 66 67 66
50 46 45 58 71 77 72 53 68 68 66 66 65 54 57 66 68 67 68 65 64 65 63 60 59 59 59 61 62 61 62 62 63 64 63 64 64 63 64 66 66 67 67 66
51 48 56 67 73 76 53 53 68 69 67 64 58 60 66 67 68 67 67 65 66 64 61 60 59 58 57 60 60 62 63 63 64 64 63 63 62 62 61 63 65 65 64 65
52 49 47 69 69 58 60 64 68 68 67 64 65 66 67 66 67 66 66 64 65 62 60 60 59 58 57 58 63 65 63 64 64 64 65 64 62 62 64 64 64 64 63 63
58 56 62 69 66 67 65 65 66 66 67 68 68 62 63 61 66 66 66 65 63 61 60 60 60 59 57 60 63 63 62 64 65 65 65 63 62 60 61 62 63 63 64 63
58 63 63 66 69 69 70 70 72 72 68 68 65 65 64 64 64 63 62 62 62 61 60 59 60 62 60 62 64 62 61 62 65 66 65 63 65 63 63 64 61 63 62 62
57 61 65 69 68 70 71 73 73 73 72 70 66 64 63 62 63 63 62 60 61 60 59 59 62 61 62 63 64 63 63 63 68 66 67 62 56 53 57 52 51 63 61 61
53 57 58 60 64 69 70 70 70 69 68 70 68 67 65 65 64 62 61 61 60 60 59 61 61 62 63 63 63 63 63 67 69 67 66 66 62 59 49 48 46 45 49 58
62 71 67 69 67 69 69 70 71 70 69 68 69 69 70 66 63 63 62 62 60 59 59 61 62 61 65 65 64 64 62 67 66 65 68 63 66 63 62 57 48 45 44 43
69 68 66 66 65 71 71 72 71 71 70 69 68 70 72 68 65 63 62 62 62 61 61 62 63 65 66 66 65 65 65 61 63 61 63 63 66 63 62 61 63 59 51 49
67 66 68 70 69 69 70 71 68 68 68 68 69 66 63 59 58 59 63 63 64 62 63 64 63 63 66 67 66 64 64 64 64 64 64 63 63 63 62 61 60 61 60 54
64 64 67 65 62 67 68 69 68 67 68 61 59 59 59 60 59 61 60 61 57 59 61 61 63 64 66 66 66 66 66 64 63 64 65 64 63 63 62 61 61 59 59 59
56 56 59 56 58 59 67 71 62 61 61 57 56 58 60 59 58 59 59 61 59 59 58 60 60 64 63 65 66 67 67 67 66 68 67 66 66 63 65 65 65 66 64 60
59 58 58 60 61 62 64 68 65 61 59 60 58 59 57 57 56 57 57 58 58 57 55 59 60 64 63 62 63 63 63 63 64 66 63 63 64 63 66 66 66 63 62 59
59 59 59 59 67 66 66 65 63 61 60 61 59 57 58 58 57 58 58 60 58 54 55 60 63 63 62 62 61 63 63 63 63 66 66 65 66 65 62 66 62 62 62 61
57 57 59 65 66 65 63 65 64 60 60 61 59 57 57 58 58 58 58 58 57 59 60 59 57 59 59 59 60 61 64 65 65 63 65 65 64 62 62 60 65 63 60 59
59 58 64 63 61 62 59 61 60 58 60 60 59 57 58 57 58 57 56 54 57 61 63 59 57 53 56 57 57 63 64 65 61 61 60 59 59 60 60 59 60 59 58 58
63 62 61 60 58 58 58 58 58 59 59 59 59 59 57 56 56 56 57 54 59 57 59 56 53 56 55 60 61 63 62 60 60 58 56 56 55 55 55 55 56 56 56 55
59 60 59 57 57 57 58 58 57 57 57 57 57 56 55 54 55 53 55 56 56 56 56 56 56 56 56 57 58 57 58 57 56 55 54 54 54 54 53 53 53 53 52 52
58 59 58 58 59 58 55 55 56 56 56 56 56 57 56 53 54 59 57 56 56 56 55 54 56 56 57 56 56 56 56 55 54 54 54 52 53 53 52 52 52 51 51 50
59 59 59 57 57 55 57 56 57 57 57 56 56 56 58 58 58 59 59 56 54 56 56 56 56 57 56 56 55 55 54 53 52 53 52 52 52 52 52 52 51 50 50 50
58 57 57 58 57 58 56 56 53 53 54 52 53 54 56 57 58 59 57 58 57 57 56 55 55 55 55 55 55 55 54 54 53 52 52 52 52 51 51 51 50 50 50 49
59 58 59 59 59 58 58 57 54 54 54 54 54 56 56 56 56 57 57 58 57 57 56 54 54 55 55 55 55 54 54 52 50 51 52 52 51 51 51 50 50 49 48 48